Date,TemperatureHighF,TemperatureAvgF,TemperatureLowF,DewpointHighF,DewpointAvgF,DewpointLowF,HumidityHigh,HumidityAvg,HumidityLow,PressureMaxIn,PressureMinIn,WindSpeedMaxMPH,WindSpeedAvgMPH,GustSpeedMaxMPH,PrecipitationSumIn
2013-4-1,47.2,39.8,31.6,41.3,27.1,17.2,86,62,42,30.05,29.68,21,6,21,0.00
2013-4-2,42.3,32.8,23.6,21.7,17.9,14.6,72,55,37,30.21,30.05,20,4,20,0.00
2013-4-3,44.2,34.2,23.1,20.8,16.8,13.6,70,50,33,30.37,30.20,18,3,20,0.00
2013-4-4,52.7,38.0,23.4,26.0,18.6,12.0,74,48,26,30.35,29.94,12,1,12,0.00
2013-4-5,56.7,42.4,27.7,35.0,26.5,22.3,86,56,33,30.12,29.90,18,2,19,0.00
2013-4-6,58.6,44.9,27.8,25.7,20.6,15.3,68,41,22,30.22,29.87,15,2,15,0.00
2013-4-7,71.6,62.2,55.3,50.3,41.5,20.1,62,47,25,29.91,29.79,30,8,30,0.00
2013-4-8,72.2,61.4,47.3,55.0,49.4,41.1,90,66,49,29.92,29.80,26,5,26,0.00
2013-4-9,80.5,66.4,53.6,60.6,55.1,50.1,92,69,45,30.00,29.81,27,4,27,0.00
2013-4-10,81.8,71.9,64.5,67.3,61.3,55.9,81,70,57,29.86,29.68,30,8,30,0.01
2013-4-11,70.2,61.9,57.2,63.8,58.7,55.8,96,89,78,29.80,29.47,5,2,21,0.36
2013-4-12,59.9,45.8,40.7,58.8,40.4,34.3,96,81,72,29.85,29.39,23,8,31,0.41
2013-4-13,53.0,44.0,37.9,40.3,36.6,32.5,82,75,59,30.00,29.84,22,7,22,0.00
2013-4-14,65.2,48.7,32.5,43.9,37.2,29.9,96,68,41,30.09,29.86,13,1,13,0.00
2013-4-15,69.0,61.6,49.7,56.6,50.1,40.7,72,66,51,29.96,29.84,18,3,18,0.00
2013-4-16,77.8,63.7,56.7,65.8,57.1,51.5,96,80,55,30.11,29.90,24,4,24,0.60
2013-4-17,65.5,58.5,52.7,59.9,55.9,51.3,97,91,82,30.16,29.94,13,2,13,0.11
2013-4-18,84.7,71.3,58.6,65.5,60.0,56.0,93,70,44,29.98,29.56,26,6,26,0.00
2013-4-19,74.5,70.9,64.8,60.3,56.8,54.9,85,62,53,29.56,29.35,22,6,22,0.07
2013-4-20,45.9,41.3,34.3,34.7,29.2,25.9,89,62,52,30.37,29.88,24,6,27,0.01
2013-4-21,53.9,41.1,26.2,30.3,26.7,23.0,92,60,33,30.53,30.37,15,1,15,0.00
2013-4-22,68.9,52.0,33.1,45.9,36.2,25.5,81,57,36,30.37,30.10,18,1,18,0.00
2013-4-23,71.5,59.5,42.8,49.9,40.8,30.0,64,50,40,30.11,29.81,15,2,15,0.00
2013-4-24,63.9,52.8,36.2,55.6,45.7,33.0,95,78,55,30.15,29.68,26,5,26,0.57
2013-4-25,54.7,44.2,32.6,41.4,35.7,30.1,95,74,55,30.32,30.14,23,5,23,0.01
2013-4-26,62.7,47.1,29.7,39.1,33.1,27.1,93,61,33,30.42,30.30,9,1,9,0.00
2013-4-27,71.7,55.0,34.3,45.6,38.0,31.2,93,58,27,30.31,30.03,16,1,16,0.00
2013-4-28,62.1,57.2,53.1,59.4,53.3,45.1,96,87,61,30.03,29.78,15,1,15,0.98
2013-4-29,63.4,58.8,56.0,58.2,56.1,52.8,97,91,79,29.92,29.81,12,2,12,0.04
2013-4-30,75.9,62.1,44.3,59.5,53.6,42.8,98,76,52,30.01,29.91,7,1,13,0.00